Regional Weather Roundup
Issued by NWS

Home | Current Version | Previous Version | Text Only | Print | Product List | Glossary On
Versions: 1 2 3 4 5 6 7 8 9 10 11 12 13 14 15 16 17 18 19 20 21 22 23 24 25 26 27 28 29 30 31 32 33 34 35 36 37 38 39 40 41 42 43 44 45 46 47 48 49 50
000
ASUS43 KTOP 260408
RWRKS

WEATHER ROUNDUP FOR KANSAS
NATIONAL WEATHER SERVICE GOODLAND KS
1100 PM CDT SAT OCT 25 2014

NOTE:  "FAIR" INDICATES FEW OR NO CLOUDS BELOW 12,000 FEET WITH NO
SIGNIFICANT WEATHER AND/OR OBSTRUCTIONS TO VISIBILITY.

KSZ001>006-013>018-027>032-041>047-260500-
NORTHWEST KANSAS

CITY           SKY/WX    TMP DP  RH WIND       PRES   REMARKS
GOODLAND       CLEAR     48  39  71 NW7       29.95F
HAYS           CLEAR     63  50  63 SE5       29.91F
HILL CITY      CLEAR     66  48  52 E5        29.92F
RUSSELL        CLEAR     66  56  70 S14       29.91F
$$

KSZ061>065-074>080-084>089-260500-
SOUTHWEST KANSAS

CITY           SKY/WX    TMP DP  RH WIND       PRES   REMARKS
DODGE CITY     CLEAR     67  48  50 S9        29.95F
ELKHART          N/A     66  43  43 S13         N/A
GARDEN CITY    CLEAR     64  47  53 S7        29.94F
GREAT BEND     CLEAR     63  54  72 S8        29.94S
LIBERAL        CLEAR     66  45  45 S10       29.98F
PRATT          CLEAR     68  52  56 S10       29.96S
$$

KSZ066>073-081>083-090>101-260500-
SOUTHEAST KANSAS

CITY           SKY/WX    TMP DP  RH WIND       PRES   REMARKS
CHANUTE        CLEAR     66  63  90 SE7       29.98F
COFFEYVILLE    CLEAR     66  62  87 S5        29.98F
HUTCHINSON     CLEAR     68  57  68 SE6       29.94F
MEDICINE LODGE   N/A     69  56  62 S9        29.94F
NEWTON         CLEAR     70  55  60 S9        29.97F
PARSONS        CLEAR     70  64  81 S3        29.99F
WICHITA INTL   CLEAR     69  59  70 S9        29.94F
WICHITA JABRA  CLEAR     70  59  68 S10       29.95F
WICHITA MCCONL CLEAR     69  62  79 SE8       29.95F
WINFIELD       CLEAR     70  61  73 S8        29.97F
$$

KSZ007>012-019>026-033>040-048>060-102>105-260500-
NORTHEAST KANSAS

CITY           SKY/WX    TMP DP  RH WIND       PRES   REMARKS
CONCORDIA      CLEAR     62  57  83 E6        29.95F
EMPORIA        CLEAR     66  61  84 S8        29.96F
LAWRENCE       CLEAR     61  55  81 E6        29.98F
MANHATTAN      CLEAR     67  59  75 NE3       29.95S
MARYSVILLE     CLEAR     61  50  67 E7        29.98S
OLATHE IND     CLEAR     65  58  78 SE5       30.00S
OLATHE EXE     CLEAR     66  58  75 SE6       29.99F
SALINA         CLEAR     64  57  78 S6        29.93S
TOPEKA BILLARD CLEAR     64  58  80 E6        29.97F
TOPEKA FORBES  CLEAR     65  58  78 E8        29.97F
$$



USA.gov is the U.S. government's official web portal to all federal, state and local government web resources and services.